Skip Page Navigation
NASA JPL Caltech
NASA Logo - Jet Propulsion Laboratory + View the NASA Portal
+ Center for Near-Earth Object Studies
JPL Home Earth Solar System Stars & Galaxies Technology
JPL Solar System Dynamics
BODIES ORBITS EPHEMERIDES TOOLS PHYSICAL DATA DISCOVERY FAQ SITE MAP
JPL Small-Body Database Browser
Search: [ help ]  
312742 (2010 TU33)
Classification: Main-belt Asteroid          SPK-ID: 2312742
Ephemeris | Orbit Diagram | Orbital Elements | Mission Design | Physical Parameters | Discovery Circumstances | Close-Approach Data ]

[ show orbit diagram ]
Orbital Elements at Epoch 2459000.5 (2020-May-31.0) TDB
Reference: JPL 10 (heliocentric ecliptic J2000)
 Element Value Uncertainty (1-sigma)   Units 
e .1312062723989387 7.9775e-08  
a 3.073480132778682 4.365e-08 au
q 2.670220261264596 2.505e-07 au
i 2.63967124466652 7.6932e-06 deg
node 71.05905465234019 0.00019087 deg
peri 86.69945994146995 0.00019522 deg
M 159.908932831968 3.497e-05 deg
tp 2458126.293026902722
(2018-Jan-07.79302690)
0.00019302 TDB
period 1968.085864507153
5.39
4.1926e-05
1.148e-07
d
yr
n .182918848456925 3.8967e-09 deg/d
Q 3.476740004292768 4.9377e-08 au
  Orbit Determination Parameters
   # obs. used (total)      135  
   data-arc span      6765 days (18.52 yr)  
   first obs. used      1999-10-04  
   last obs. used      2018-04-12  
   planetary ephem.      DE431  
   SB-pert. ephem.      SB431-N16  
   condition code      0  
   norm. resid. RMS      .65444  
   source      ORB  
   producer      Otto Matic  
   solution date      2019-Jul-14 14:09:05  

Additional Information
 Earth MOID = 1.68117 au 
 Jupiter MOID = 1.51068 au 
 T_jup = 3.215 
[ show covariance matrix ]

Ephemeris | Orbit Diagram | Orbital Elements | Mission Design | Physical Parameters | Discovery Circumstances | Close-Approach Data ]

Physical Parameter Table
Parameter Symbol Value Units Sigma Reference Notes
absolute magnitude H 16.2   n/a MPO437380  

312742 (2010 TU33)          Discovered 2005-Nov-25 by Mt. Lemmon Survey at Mount Lemmon
Reference: 20120109/Numbers.arcLast Updated: 2012-01-11

[ hide close-approach data ]
Close-Approach Data   ...sorted by Date/Time (TDB)
Date/Time (TDB) Time Uncertainty
(days_HH:MM)
Body Nominal Distance (au) Minimum Distance (au) Maximum Distance (au) V-relative (km/s) V-infinity (km/s) JD (TDB) Time Uncertainty (minutes) Semi-major axis (km) Semi-minor axis (km) range-LOV angle (deg) N-sigma BP Orbit Ref. Reference Modified
1940-Nov-15 05:46 00:05 Jupiter 1.83390699655671 1.83390399043553 1.83391000267445 2.80426890117974 2.63442376069789 2429948.740242750 4.7856957454269 107.813179409705 70.5305534243315 52.7036911478758 494712.580412575 T 10 CATAB v2.0e-lin.ifort 2019-Jul-14 14:09:07 2019-Jul-14 14:09
1950-Jun-17 12:27 00:04 Jupiter 1.56237677838206 1.56237559084932 1.56237796593452 1.44854861830501 1.00698499069948 2433450.018858076 4.27606390453577 517.134814499134 205.821395826771 62.3100187617967 1202218.09410342 T 10 CATAB v2.0e-lin.ifort 2019-Jul-14 14:09:07 2019-Jul-14 14:09
2000-Feb-28 20:38 00:01 Jupiter 1.81090490777936 1.81090360528521 1.81090621027258 2.69126331472741 2.51145962228646 2451603.359951469 1.07471689490263 86.8395627180239 30.0010533701398 -85.1777225240256 940962.078478379 T 10 CATAB v2.0e-lin.ifort 2019-Jul-14 14:09:07 2019-Jul-14 14:09
2009-Sep-27 07:02 < 00:01 Jupiter 1.57321577297862 1.57321510768042 1.57321643827592 1.47999706340764 1.05526646457061 2455101.792840865 0.714467650893782 250.605688037128 169.138621184711 49.5927548155279 1243420.80484172 T 10 CATAB v2.0e-lin.ifort 2019-Jul-14 14:09:07 2019-Jul-14 14:09
2059-Jun-03 20:08 00:03 Jupiter 1.78079437026112 1.78079233390091 1.78079640661889 2.54915138849885 2.35518293242827 2473248.338832158 2.96179189808934 94.8296255390926 39.107645226019 89.435566286467 604236.15652679 T 10 CATAB v2.0e-lin.ifort 2019-Jul-14 14:09:07 2019-Jul-14 14:09
2068-Dec-28 07:59 00:04 Jupiter 1.59041803524413 1.59041638348396 1.59041968701741 1.531356412575 1.13132461370227 2476743.832586806 3.71504453177937 437.743876617177 137.052001396182 60.577209927089 1167352.31367321 T 10 CATAB v2.0e-lin.ifort 2019-Jul-14 14:09:07 2019-Jul-14 14:09
2118-Aug-29 12:27 00:07 Jupiter 1.74472128759646 1.74471748684409 1.74472508833911 2.3850116996634 2.17194067162584 2494884.018985368 6.7380265028338 115.758345085194 46.9243730185016 80.3420978860287 347959.559562288 T 10 CATAB v2.0e-lin.ifort 2019-Jul-14 14:09:07 2019-Jul-14 14:09
2128-Mar-22 06:44 00:07 Jupiter 1.6150935746193 1.61509024537051 1.61509690390555 1.60827500352134 1.24002619658849 2498376.780311866 7.47174699380538 661.904256950421 101.77214451548 63.0700983761233 1119348.69447903 T 10 CATAB v2.0e-lin.ifort 2019-Jul-14 14:09:07 2019-Jul-14 14:09
2177-Nov-15 08:27 00:10 Jupiter 1.70467032114243 1.70466503897763 1.70467560328338 2.20958929993551 1.97193253459006 2516511.852072480 10.213308497427 136.874763420827 21.8445722579219 89.4818633054266 253022.623200192 T 10 CATAB v2.0e-lin.ifort 2019-Jul-14 14:09:07 2019-Jul-14 14:09
2187-Jun-07 00:48 00:11 Jupiter 1.64760363492558 1.64759839365962 1.64760887623049 1.71477284358896 1.38284441155203 2520002.533302925 10.8067663066798 736.54190365693 70.3634097893785 66.532008878835 1038949.76508175 T 10 CATAB v2.0e-lin.ifort 2019-Jul-14 14:09:07 2019-Jul-14 14:09

Alternate Designations
 2010 TU33 = 2005 WO126 
Ephemeris | Orbit Diagram | Orbital Elements | Mission Design | Physical Parameters | Discovery Circumstances | Close-Approach Data ]
ABOUT SSD CREDITS/AWARDS PRIVACY/COPYRIGHT GLOSSARY LINKS
FirstGov 2020-Sep-24 08:48 UT
(server date/time)  
NASA Home Page
Site Manager:   Ryan S. Park
Webmaster  Alan B. Chamberlin